Simultaneous Nadir Overpasses (SNOs) Predictions

Prediction of SNOs between AQUA and NOAA-19 Satellite Orbit:

Table of predicted SNOs for the next 14.0 days since TLE Epoch: 7/6/2018
Index Date (AQUA) Time (AQUA) Lat,Lon (AQUA) SZA (AQUA ) Date (NOAA-19) Time (NOAA-19) Lat,Lon (NOAA-19) SZA (NOAA-19 ) Distance(km) Time Diff (sec)
1 07/07/2018 00:43:54 -80.78, -49.01 119.64 07/07/2018 00:43:58 -80.78, -48.94 119.65 1.26 4
2 07/09/2018 06:17:37 80.77, 47.64 60.61 07/09/2018 06:17:33 80.78, 47.67 60.61 1.09 4
3 07/11/2018 11:51:21 -80.77, 144.24 119.11 07/11/2018 11:51:07 -80.78, 144.31 119.11 1.78 14
4 07/13/2018 17:25:04 80.77,-119.19 61.21 07/13/2018 17:24:43 80.78,-119.10 61.22 1.92 21
5 07/13/2018 18:14:32 -80.79, 48.14 118.74 07/13/2018 18:15:42 -80.78, 48.18 118.78 1.90 70
6 07/15/2018 22:58:48 -80.77, -22.60 118.45 07/15/2018 22:58:16 -80.77, -22.51 118.44 1.80 32
7 07/15/2018 23:48:14 80.77, 145.01 61.57 07/15/2018 23:49:18 80.78, 144.94 61.56 1.81 64
8 07/18/2018 04:32:31 80.77, 73.90 61.95 07/18/2018 04:31:53 80.77, 74.04 61.95 2.38 38
9 07/18/2018 05:21:58 -80.77,-118.40 118.06 07/18/2018 05:22:50 -80.78,-118.32 118.08 2.18 52
10 07/20/2018 10:06:15 -80.77, 170.48 117.65 07/20/2018 10:05:25 -80.77, 170.59 117.64 2.13 50




NCC Satellite Simultaneous Nadir Overpasses (SNOs) Prediction Service
